map of TLN home
TLN - Airport
Location
City:  Hyeres, Provence-Alpes-Côte d'Azur, France
Name:Le Palyvestre
ICAO:LFTH
IATA:TLN

Details
Type:Airport (Aerodrome, Airfield)
Use:Military
Latitude:43°05'50"N (43.097344)
Longitude:6°08'46"E (6.146031)
Elevation:7 ft (2 m)
Variation:1.84°E (WMM2015 magnetic declination)
0.11° annual change
Runways:2
Longest:6955 × 148 ft (2120 × 45 m)

Time
Time Zone:UTC+1 (DST+2)
Local Time:

Weather
METAR:LFTH 172230Z AUTO VRB02KT CAVOK 22/18 Q1013 NOSIG
TAF:LFTH 172000Z 1721/1821 26006KT CAVOK
BECMG 1721/1724 VRB03KT
BECMG 1808/1810 16012KT
BECMG 1812/1814 24017KT
BECMG 1819/1821 28010KT

Related Locations
Nearby:
Farthest:CHT: 12299 mi / 19794 km
Waitangi [Tuuta], CIT, NZ

Find:

   beyond  
but within

Other Information
Maps:
NOTAMs:
Links:
Sources:

  
  • flag of France
  • flag of Provence-Alpes-Côte d'Azur
  

Sectional Chart

Flight Planning
at skyvector.com

Satellite Image

Google Maps Satellite view

 

Copyright © 2004-2018 Karl L. Swartz. All rights reserved.
The Great Circle Mapper name and logo are trademarks of the Great Circle Mapper.
All other trademarks mentioned herein belong to their respective owners.
Please see credits for attibutions and further copyright information.

  Follow gcmap on Facebook Follow gcmap on Twitter Follow gcmap on Google+ GCmap on LinkedIn

hCard Microformat

Geo Microformat